Terminal Aerodrome Forecast
Issued by NWS Topeka, KS

Home | Current Version | Previous Version | Graphics & Text | Print | Product List | Glossary On
Versions: 1 2 3 4 5 6 7 8 9 10 11 12 13 14 15 16 17 18 19 20 21 22 23 24 25 26 27
000
FTUS43 KTOP 230500
TAFTOP
TAF
KTOP 230520Z 2306/2406 15007KT 6SM -SHRA BR SCT025 OVC070
     FM231000 19005KT P6SM OVC025
     FM231600 21007KT P6SM BKN025
     FM232200 19005KT P6SM SCT030=

USA.gov is the U.S. government's official web portal to all federal, state and local government web resources and services.